{"data":{"norad_id":65543,"epoch":"2026-09-19T23:55:28.812000Z","epoch_age_seconds":155304,"freshness":"FRESH","line1":"1 65543U 25200Z   26262.99686125  .00016705  00000+0  51837-3 0  9991","line2":"2 65543  97.2844 329.3806 0002054  92.5854 267.5624 15.33458869 58562","mean_motion":15.33458869,"eccentricity":0.0002054,"inclination_deg":97.2844,"raan_deg":329.3806,"arg_perigee_deg":92.5854,"mean_anomaly_deg":267.5624,"bstar":0.00051837,"rev_number":5856,"period_min":93.905355344748,"perigee_km":464.09622697061,"apogee_km":466.90759383501,"semimajor_km":6843.6389104028,"source":"CELESTRAK","updated_at":"2026-09-21T09:00:35.652506Z"}}